TimeEST,TemperatureF,Dew PointF,Humidity,Sea Level PressureIn,VisibilityMPH,Wind Direction,Wind SpeedMPH,Gust SpeedMPH,PrecipitationIn,Events,Conditions,WindDirDegrees,DateUTC
12:53 AM,27.0,24.1,89,30.69,10.0,Calm,Calm,-,N/A,,Mostly Cloudy,0,2013-11-05 05:53:00
1:53 AM,26.1,23.0,88,30.69,10.0,Calm,Calm,-,N/A,,Overcast,0,2013-11-05 06:53:00
2:53 AM,28.0,25.0,88,30.69,10.0,Calm,Calm,-,N/A,,Overcast,0,2013-11-05 07:53:00
3:53 AM,27.0,23.0,85,30.69,10.0,Calm,Calm,-,N/A,,Clear,0,2013-11-05 08:53:00
4:53 AM,28.9,23.0,78,30.68,10.0,Calm,Calm,-,N/A,,Clear,0,2013-11-05 09:53:00
5:53 AM,27.0,23.0,85,30.69,10.0,Calm,Calm,-,N/A,,Clear,0,2013-11-05 10:53:00
6:53 AM,28.9,21.9,75,30.69,10.0,Calm,Calm,-,N/A,,Clear,0,2013-11-05 11:53:00
7:53 AM,34.0,25.0,70,30.70,10.0,North,3.5,-,N/A,,Clear,10,2013-11-05 12:53:00
8:53 AM,41.0,26.1,55,30.70,10.0,North,3.5,-,N/A,,Clear,360,2013-11-05 13:53:00
9:53 AM,46.0,28.0,50,30.70,10.0,Variable,3.5,-,N/A,,Clear,0,2013-11-05 14:53:00
10:53 AM,46.9,30.0,52,30.67,10.0,Calm,Calm,-,N/A,,Clear,0,2013-11-05 15:53:00
11:53 AM,48.0,30.0,50,30.65,10.0,SE,8.1,-,N/A,,Clear,140,2013-11-05 16:53:00
12:53 PM,48.9,30.9,50,30.64,10.0,South,9.2,-,N/A,,Clear,170,2013-11-05 17:53:00
1:53 PM,48.0,30.9,52,30.61,10.0,ESE,10.4,-,N/A,,Clear,120,2013-11-05 18:53:00
2:53 PM,48.0,30.0,50,30.60,10.0,South,8.1,-,N/A,,Clear,170,2013-11-05 19:53:00
3:53 PM,46.9,33.1,59,30.60,10.0,South,5.8,-,N/A,,Clear,180,2013-11-05 20:53:00
4:53 PM,42.1,30.9,65,30.58,10.0,Calm,Calm,-,N/A,,Clear,0,2013-11-05 21:53:00
5:53 PM,36.0,30.9,82,30.58,10.0,Calm,Calm,-,N/A,,Clear,0,2013-11-05 22:53:00
6:53 PM,34.0,30.0,85,30.59,10.0,Calm,Calm,-,N/A,,Clear,0,2013-11-05 23:53:00
7:53 PM,32.0,28.9,88,30.57,10.0,Calm,Calm,-,N/A,,Clear,0,2013-11-06 00:53:00
8:53 PM,32.0,30.0,92,30.58,10.0,Calm,Calm,-,N/A,,Clear,0,2013-11-06 01:53:00
9:53 PM,33.1,30.0,89,30.56,10.0,Calm,Calm,-,N/A,,Clear,0,2013-11-06 02:53:00
10:53 PM,34.0,30.9,89,30.54,10.0,Calm,Calm,-,N/A,,Clear,0,2013-11-06 03:53:00
11:53 PM,33.1,30.0,89,30.53,10.0,Calm,Calm,-,N/A,,Clear,0,2013-11-06 04:53:00